Flag for Netherlands Weather past 2 weeks in Philipsburg, Saint Martin, Netherlands

Now
81 °F

Partly sunny.


Feels Like: 83 °F
Forecast: 78 / 81 °F
Wind: 15 mph from East

Location: Juliana Airport - Saint Maarten

Current Time: Feb 27, 2015 at 11:26:07 AM

Latest Report: Feb 27, 2015 at 10:00 AM


Visibility: N/A

Pressure: 30.12 "Hg

Humidity: 66%

Dew point: 68 °F

Location of PhilipsburgLocation

Historic Weather in Philipsburg — Graph

°F

Philipsburg temperature yesterday

Maximum temperature yesterday: 82 °F (at 10:00 AM)
Minimum temperature yesterday: 77 °F (at 2:00 AM)
Average temperature yesterday: 80 °F

Past Weeks' High & Low Weather Summary

 TemperatureHumidityPressure
High84 °F (Feb 13, 1:00 PM)89% (Feb 19, 7:00 AM)30.12 "Hg (Feb 19, 7:00 AM)
Low75 °F (Feb 19, 7:00 AM)55% (Feb 19, 2:00 PM)29.95 "Hg (Feb 12, 2:00 PM)
Average80 °F72%30.04 "Hg
* Reported Feb 12 10:00 AM — Feb 27 10:00 AM, Philipsburg, Weather by CustomWeather, © 2015

Note: Actual official high and low records may vary slightly from our data, if they occured in-between our weather recording intervals... More about our weather records

Advertising

Philipsburg weather history for previous 24 hours

 ConditionsComfort  
Time TempWeatherWind HumidityBarometerVisibility
10:00 AM
Fri, Feb 27
81 °FPartly sunny.15 mph66%30.12 "HgN/A
9:00 AM79 °FSprinkles. Partly sunny.15 mph70%30.09 "HgN/A
8:00 AM79 °FScattered clouds.16 mph70%30.09 "HgN/A
7:00 AM77 °FPassing clouds.15 mph74%30.07 "HgN/A
6:00 AM79 °FPassing clouds.14 mph70%30.07 "HgN/A
5:00 AM77 °FPassing clouds.16 mph69%30.04 "HgN/A
4:00 AM77 °FPassing clouds.17 mph69%30.07 "HgN/A
3:00 AM79 °FPassing clouds.14 mph65%30.07 "HgN/A
2:00 AM79 °FPassing clouds.15 mph61%30.07 "HgN/A
1:00 AM79 °FPassing clouds.14 mph65%30.09 "HgN/A
12:00 AM79 °FPassing clouds.15 mph65%30.09 "HgN/A
11:00 PM
Thu, Feb 26
79 °FPassing clouds.15 mph65%30.09 "HgN/A
10:00 PM79 °FPassing clouds.14 mph65%30.09 "HgN/A
9:00 PM79 °FPassing clouds.14 mph65%30.07 "HgN/A
8:00 PM79 °FScattered showers. Passing clouds.16 mph65%30.07 "HgN/A
7:00 PM79 °FPassing clouds.14 mph65%30.04 "HgN/A
6:00 PM79 °FPassing clouds.15 mph65%30.04 "HgN/A
5:00 PM81 °FScattered showers. Scattered clouds.16 mph66%30.01 "HgN/A
4:00 PM82 °FScattered showers. Partly sunny.14 mph62%30.01 "HgN/A
3:00 PM82 °FScattered clouds.15 mph62%30.01 "HgN/A
2:00 PM82 °FScattered clouds.15 mph62%30.04 "HgN/A
1:00 PM82 °FScattered clouds.15 mph62%30.04 "HgN/A
12:00 PM82 °FScattered clouds.17 mph62%30.07 "HgN/A
11:00 AM81 °FScattered clouds.16 mph66%30.09 "HgN/A
Weather by CustomWeather, © 2015

See weather overviewHow to use our weather pages